64509 UWKD-UUMU

Flight info

Callsign 64509
Flight time 0h 45m
Altitude 32000
Route APTAR T787 URAGO
Aircraft T214/M-SDE3GHIJ2J3J5M1RVWXY/LB2D1

Departure

Time 2026-04-21 17:01
Airport Kazan International Airport (UWKD)

Arrival

Time 2026-04-21 17:46
Airport Chkalovskiy Air Base (UUMU)
Time Latitude Longitude Altitude Speed Heading
2026-04-21 16:48 55.61033 49.28154 399 ft 0 kts 214°
2026-04-21 16:56 55.61027 49.28148 398 ft 6 kts 212°
2026-04-21 16:57 55.60988 49.28136 398 ft 4 kts 166°
2026-04-21 16:57 55.60952 49.28129 398 ft 9 kts 196°
2026-04-21 16:57 55.60844 49.28051 397 ft 19 kts 182°
2026-04-21 16:57 55.60750 49.28215 398 ft 25 kts 125°
2026-04-21 16:58 55.60648 49.28469 404 ft 28 kts 123°
2026-04-21 16:58 55.60504 49.28845 406 ft 38 kts 125°
2026-04-21 16:58 55.60359 49.29219 407 ft 33 kts 126°
2026-04-21 16:58 55.60246 49.29514 411 ft 26 kts 126°
2026-04-21 16:59 55.60164 49.29723 412 ft 23 kts 123°
2026-04-21 16:59 55.60069 49.29966 413 ft 20 kts 124°
2026-04-21 16:59 55.59965 49.30119 411 ft 21 kts 178°
2026-04-21 16:59 55.59866 49.30068 407 ft 10 kts 207°
2026-04-21 17:00 55.59826 49.29959 405 ft 13 kts 284°
2026-04-21 17:00 55.59938 49.29652 408 ft 63 kts 303°
2026-04-21 17:00 55.60169 49.29060 404 ft 110 kts 304°
2026-04-21 17:00 55.60957 49.27127 731 ft 174 kts 303°
2026-04-21 17:01 55.61613 49.25261 1045 ft 170 kts 296°
2026-04-21 17:01 55.61870 49.23254 1701 ft 171 kts 270°
2026-04-21 17:01 55.61845 49.21110 2366 ft 183 kts 269°
2026-04-21 17:01 55.61798 49.18827 2861 ft 188 kts 269°
2026-04-21 17:02 55.61738 49.16531 3561 ft 192 kts 269°
2026-04-21 17:02 55.61675 49.14164 4243 ft 195 kts 270°
2026-04-21 17:02 55.61616 49.11791 4920 ft 198 kts 270°
2026-04-21 17:02 55.61557 49.09362 5611 ft 201 kts 270°
2026-04-21 17:03 55.61498 49.06886 6299 ft 203 kts 270°
2026-04-21 17:03 55.61438 49.04383 6983 ft 207 kts 270°
2026-04-21 17:03 55.61374 49.01748 7820 ft 227 kts 270°
2026-04-21 17:03 55.61303 48.98920 8789 ft 244 kts 270°
2026-04-21 17:04 55.61222 48.95814 9757 ft 262 kts 271°
2026-04-21 17:04 55.61134 48.92515 10708 ft 280 kts 271°
2026-04-21 17:04 55.61041 48.89003 11666 ft 298 kts 271°
2026-04-21 17:04 55.60943 48.85303 12605 ft 314 kts 271°
2026-04-21 17:05 55.60839 48.81403 13546 ft 330 kts 271°
2026-04-21 17:05 55.60727 48.77261 14487 ft 346 kts 271°
2026-04-21 17:05 55.60611 48.72946 15433 ft 360 kts 271°
2026-04-21 17:05 55.60489 48.68508 16475 ft 370 kts 271°
2026-04-21 17:06 55.60360 48.63990 17564 ft 377 kts 271°
2026-04-21 17:06 55.60224 48.59321 18655 ft 384 kts 272°
2026-04-21 17:06 55.60084 48.54626 19719 ft 389 kts 272°
2026-04-21 17:06 55.59943 48.49855 20765 ft 394 kts 272°
2026-04-21 17:07 55.59847 48.46661 21447 ft 397 kts 272°
2026-04-21 17:07 55.59649 48.40229 22808 ft 401 kts 272°
2026-04-21 17:07 55.59493 48.35290 23829 ft 403 kts 272°
2026-04-21 17:07 55.59332 48.30358 24819 ft 404 kts 271°
2026-04-21 17:08 55.59177 48.25483 25773 ft 404 kts 271°
2026-04-21 17:08 55.59025 48.20559 26761 ft 403 kts 271°
2026-04-21 17:08 55.58871 48.15681 27736 ft 401 kts 271°
2026-04-21 17:08 55.58717 48.10808 28676 ft 398 kts 270°
2026-04-21 17:09 55.58402 48.01205 30263 ft 392 kts 270°
2026-04-21 17:09 55.58239 47.96289 30315 ft 412 kts 270°
2026-04-21 17:09 55.58065 47.91180 30591 ft 423 kts 270°
2026-04-21 17:10 55.57883 47.85934 30913 ft 432 kts 270°
2026-04-21 17:10 55.57701 47.80664 31170 ft 441 kts 269°
2026-04-21 17:10 55.57506 47.75215 31420 ft 449 kts 269°
2026-04-21 17:10 55.57306 47.69660 31704 ft 456 kts 269°
2026-04-21 17:11 55.57103 47.64102 32027 ft 460 kts 269°
2026-04-21 17:11 55.56888 47.58422 32143 ft 472 kts 269°
2026-04-21 17:11 55.56664 47.52578 32143 ft 485 kts 269°
2026-04-21 17:11 55.56425 47.46545 32163 ft 496 kts 268°
2026-04-21 17:12 55.55921 47.34316 32143 ft 506 kts 268°
2026-04-21 17:12 55.55389 47.21879 32159 ft 509 kts 268°
2026-04-21 17:13 55.55418 47.09535 32184 ft 507 kts 275°
2026-04-21 17:13 55.55807 46.97066 32144 ft 509 kts 275°
2026-04-21 17:14 55.56159 46.84687 32180 ft 508 kts 275°
2026-04-21 17:14 55.56497 46.72269 32167 ft 507 kts 275°
2026-04-21 17:15 55.56827 46.59846 32171 ft 508 kts 275°
2026-04-21 17:15 55.57143 46.47411 32200 ft 507 kts 275°
2026-04-21 17:16 55.57443 46.35042 32197 ft 508 kts 275°
2026-04-21 17:16 55.57730 46.22570 32201 ft 508 kts 274°
2026-04-21 17:17 55.58006 46.10219 32207 ft 508 kts 274°
2026-04-21 17:17 55.58271 45.97781 32200 ft 509 kts 274°
2026-04-21 17:18 55.58522 45.85334 32215 ft 508 kts 274°
2026-04-21 17:18 55.58761 45.72806 32208 ft 509 kts 274°
2026-04-21 17:19 55.58985 45.60399 32204 ft 510 kts 274°
2026-04-21 17:19 55.59198 45.47862 32212 ft 510 kts 274°
2026-04-21 17:20 55.59398 45.35370 32218 ft 510 kts 274°
2026-04-21 17:20 55.59581 45.22900 32226 ft 511 kts 273°
2026-04-21 17:21 55.59752 45.10382 32228 ft 510 kts 273°
2026-04-21 17:21 55.60566 44.28451 32390 ft 512 kts 272°
2026-04-21 17:22 55.60593 44.24254 32251 ft 515 kts 272°
2026-04-21 17:22 55.60792 43.51173 32989 ft 519 kts 272°
2026-04-21 17:22 55.60790 43.44663 32006 ft 528 kts 272°
2026-04-21 17:23 55.60782 43.38375 32299 ft 506 kts 272°
2026-04-21 17:23 55.60767 43.32279 32336 ft 497 kts 271°
2026-04-21 17:23 55.60738 43.19877 32270 ft 512 kts 271°
2026-04-21 17:24 55.60692 43.07322 32298 ft 513 kts 271°
2026-04-21 17:24 55.60633 42.94799 32264 ft 514 kts 271°
2026-04-21 17:25 55.60556 42.82169 32276 ft 515 kts 271°
2026-04-21 17:25 55.60465 42.69568 32294 ft 514 kts 271°
2026-04-21 17:26 55.60072 42.28273 32296 ft 515 kts 270°
2026-04-21 17:26 55.59697 41.98428 32332 ft 515 kts 270°
2026-04-21 17:27 55.59504 41.85043 32189 ft 511 kts 270°
2026-04-21 17:27 55.59408 41.78813 32443 ft 509 kts 270°
2026-04-21 17:27 55.59309 41.72499 32276 ft 518 kts 270°
2026-04-21 17:27 55.59204 41.66204 32209 ft 516 kts 270°
2026-04-21 17:28 55.59096 41.59958 32383 ft 513 kts 270°
2026-04-21 17:28 55.58561 41.31255 32223 ft 516 kts 269°
2026-04-21 17:28 55.57270 40.74677 32332 ft 516 kts 269°
2026-04-21 17:28 55.57105 40.68350 32294 ft 518 kts 269°
2026-04-21 17:29 55.55965 40.28070 32438 ft 517 kts 268°
2026-04-21 17:29 55.55767 40.21748 32325 ft 521 kts 268°
2026-04-21 17:29 55.55340 40.09007 32365 ft 518 kts 268°
2026-04-21 17:30 55.54240 39.79198 31703 ft 521 kts 268°
2026-04-21 17:30 55.54008 39.72842 31517 ft 519 kts 268°
2026-04-21 17:30 55.53802 39.66682 31174 ft 491 kts 269°
2026-04-21 17:30 55.53624 39.60771 30440 ft 474 kts 269°
2026-04-21 17:31 55.53468 39.55106 29768 ft 458 kts 270°
2026-04-21 17:31 55.53330 39.49617 29104 ft 444 kts 270°
2026-04-21 17:31 55.53209 39.44276 28379 ft 429 kts 270°
2026-04-21 17:31 55.53120 39.39208 26820 ft 413 kts 274°
2026-04-21 17:32 55.53542 39.34407 25475 ft 390 kts 291°
2026-04-21 17:32 55.54663 39.30217 24225 ft 369 kts 307°
2026-04-21 17:32 55.56213 39.26823 22957 ft 354 kts 314°
2026-04-21 17:32 55.57836 39.23670 21654 ft 344 kts 315°
2026-04-21 17:33 55.59407 39.20636 20782 ft 324 kts 315°
2026-04-21 17:33 55.60875 39.17782 20000 ft 308 kts 315°
2026-04-21 17:33 55.62280 39.15036 19203 ft 296 kts 315°
2026-04-21 17:33 55.63634 39.12371 18558 ft 295 kts 315°
2026-04-21 17:34 55.65008 39.09666 17947 ft 299 kts 315°
2026-04-21 17:34 55.66163 39.06576 17290 ft 308 kts 296°
2026-04-21 17:34 55.66516 39.02770 16691 ft 326 kts 269°
2026-04-21 17:34 55.65809 38.98895 15820 ft 343 kts 243°
2026-04-21 17:35 55.64354 38.95551 15015 ft 352 kts 228°
2026-04-21 17:35 55.62758 38.92280 14149 ft 354 kts 242°
2026-04-21 17:35 55.61833 38.88281 13320 ft 351 kts 261°
2026-04-21 17:35 55.61628 38.84090 12491 ft 346 kts 278°
2026-04-21 17:36 55.62141 38.80003 11637 ft 340 kts 296°
2026-04-21 17:36 55.63300 38.76436 10792 ft 334 kts 311°
2026-04-21 17:36 55.64717 38.73204 9914 ft 331 kts 313°
2026-04-21 17:36 55.66068 38.70096 9063 ft 305 kts 312°
2026-04-21 17:37 55.67094 38.67003 8436 ft 287 kts 297°
2026-04-21 17:37 55.67812 38.63851 7868 ft 268 kts 298°
2026-04-21 17:37 55.68479 38.60889 7289 ft 256 kts 297°
2026-04-21 17:37 55.69089 38.58079 7096 ft 220 kts 297°
2026-04-21 17:38 55.69544 38.55739 6998 ft 189 kts 292°
2026-04-21 17:38 55.69555 38.53475 6812 ft 186 kts 265°
2026-04-21 17:38 55.69268 38.51246 6729 ft 186 kts 263°
2026-04-21 17:38 55.68958 38.49012 6588 ft 189 kts 263°
2026-04-21 17:39 55.68670 38.46761 6432 ft 186 kts 273°
2026-04-21 17:39 55.68929 38.44629 6326 ft 172 kts 306°
2026-04-21 17:39 55.69547 38.42830 6144 ft 172 kts 311°
2026-04-21 17:39 55.70217 38.41070 5874 ft 171 kts 314°
2026-04-21 17:40 55.70949 38.39461 5617 ft 166 kts 320°
2026-04-21 17:40 55.71729 38.37994 5520 ft 162 kts 322°
2026-04-21 17:40 55.72507 38.36545 5388 ft 164 kts 322°
2026-04-21 17:40 55.73313 38.35061 5177 ft 164 kts 322°
2026-04-21 17:41 55.74106 38.33605 4972 ft 164 kts 321°
2026-04-21 17:41 55.74896 38.32164 4768 ft 164 kts 321°
2026-04-21 17:41 55.75679 38.30678 4545 ft 164 kts 319°
2026-04-21 17:41 55.76420 38.29183 4327 ft 162 kts 318°
2026-04-21 17:42 55.77168 38.27669 4075 ft 161 kts 318°
2026-04-21 17:42 55.77909 38.26198 3777 ft 161 kts 320°
2026-04-21 17:42 55.78667 38.24762 3542 ft 159 kts 320°
2026-04-21 17:42 55.79430 38.23328 3308 ft 158 kts 320°
2026-04-21 17:43 55.80196 38.21898 3072 ft 158 kts 320°
2026-04-21 17:43 55.80926 38.20437 2827 ft 158 kts 315°
2026-04-21 17:43 55.81615 38.18934 2416 ft 156 kts 315°
2026-04-21 17:43 55.82282 38.17454 2146 ft 154 kts 315°
2026-04-21 17:44 55.82951 38.15984 1796 ft 152 kts 315°
2026-04-21 17:44 55.83646 38.14549 1492 ft 155 kts 317°
2026-04-21 17:44 55.84367 38.13131 1430 ft 151 kts 317°
2026-04-21 17:44 55.85065 38.11731 1167 ft 152 kts 314°
2026-04-21 17:45 55.85733 38.10294 923 ft 146 kts 313°
2026-04-21 17:45 55.86383 38.08941 692 ft 141 kts 313°
2026-04-21 17:45 55.87010 38.07654 527 ft 135 kts 313°
2026-04-21 17:45 55.87561 38.06531 505 ft 88 kts 310°
2026-04-21 17:46 55.87915 38.05792 505 ft 68 kts 308°
2026-04-21 17:46 55.88193 38.05191 505 ft 60 kts 312°
2026-04-21 17:46 55.88434 38.04695 505 ft 45 kts 309°
2026-04-21 17:46 55.88622 38.04294 505 ft 30 kts 308°
2026-04-21 17:47 55.88629 38.04126 505 ft 6 kts 187°
2026-04-21 17:47 55.88605 38.04126 504 ft 4 kts 181°
2026-04-21 17:47 55.88505 38.04110 504 ft 18 kts 189°
2026-04-21 17:47 55.88383 38.04071 505 ft 16 kts 188°
2026-04-21 17:48 55.88276 38.04038 505 ft 15 kts 190°
2026-04-21 17:48 55.88178 38.03999 505 ft 16 kts 205°
2026-04-21 17:48 55.88112 38.03782 505 ft 23 kts 277°
2026-04-21 17:48 55.88138 38.03508 505 ft 15 kts 279°
2026-04-21 17:49 55.88174 38.03366 505 ft 12 kts 325°
2026-04-21 17:49 55.88210 38.03215 504 ft 11 kts 283°
2026-04-21 17:49 55.88170 38.03109 504 ft 10 kts 191°
2026-04-21 17:49 55.88109 38.03088 504 ft 7 kts 191°